STARLINK-1542, 46073

Orbit data source: Space-Track

STARLINK-1542, 46073 is a payload satellite owned by SpaceX/Seattle (US) in LEO that was launched on Fri, 07 Aug 2020 UTC via an FALCON 9 launch vehicle from the Air Force Eastern Test Range (AFETR). Payload-class satellites include a variety of spacecraft equipped with specific instruments for various scientific and technological missions. These include communications satellites like Starlink; space stations such as the ISS; scientific satellites like the Hubble; Earth observation satellites from companies like Planet Labs, Umbra, and HawkEye 360; GPS; miniature CubeSats for education and research; and military/defense satellites.

Loading next visibility...
Identifier
46073, 2020-055AY
Orbit
LEO
Country
Flag of USUS
Related business
Manufacturer
SpaceX/Seattle
Mission
Operational Commercial Communications
Bus & Motor
STARLINK, Unknown motor
Mass
260 kg wet, ~248 kg dry
Launch date (UTC)
2020-08-07 (5 years ago)
Launch vehicle
FALCON 9
Launch site
Air Force Eastern Test Range (AFETR)
Object type
Payload
Rocket body
Debris
Shape & HBR
Box + 1 Pan, 10.1 m
Radar Cross Section
13.562 m², Large (>1 m²)

Expand to show TLE details & history
Last TLE update: 1 day ago

TLE from 1 day ago
0 STARLINK-1542
1 46073U 20055AY  25306.22398201  .00000443  00000-0  48625-4 0  9995
2 46073  53.0557 308.8322 0001540  97.5871 262.5293 15.06395196290094
Epoch: 2025-11-02T05:22Z
TLE epoch observation values (Epoch: 2025-11-02T05:22:32.045Z)
Latitude
-0.00003°
Longitude
-173.54413°
Altitude
548.244 km
Speed
7.589 km/s
True Right ascension
20h 35m 19s
True Declination
0° 00' 00"
Sunlit
Object was in daylight at epoch
Visualization orbit readout
Latitude
Unknown
Longitude
Unknown
Altitude
Unknown
Speed
Unknown
Apparent Right ascension
Unknown
Apparent Declination
Unknown
Sunlit
N/A
Visualization observer readout
Local Sidereal Time
06:51:19
Azimuth
Unknown
Elevation
Unknown
Doppler factor
Unknown
Orbital elements
Apogee altitude
548.563 km
Perigee altitude
546.43 km
Semi-major axis
6,925.634 km
Eccentricity
0.00015
Inclination
53.0557°
RAAN
308.8322°
Arg. of periapsis
97.5871°
True anomaly
262.5118°
Mean anomaly
262.5293°
Eccentric anomaly
262.52055°
Mean motion
3.76577 °/min
Orbital period
95.6 mins
BSTAR
0.000048625
Loading maneuver chart data...
Computing Atmospheric mass density...

Documentation

Showing up to 5 results
|